Regional Weather Roundup
Issued by NWS Sioux Falls, SD

Home | Current Version | Previous Version | Graphics & Text | Print | Product List | Glossary On
Versions: 1 2 3 4 5 6 7 8 9 10 11 12 13 14 15 16 17 18 19 20 21 22 23 24 25 26 27 28 29 30 31 32 33 34 35 36 37 38 39 40 41 42 43 44 45 46 47 48 49 50
000
ASUS43 KFSD 240010
RWRFSD

WEATHER ROUNDUP FOR SE SOUTH DAKOTA/SW MINNESOTA/NW IOWA
NATIONAL WEATHER SERVICE SIOUX FALLS SD
600 PM CST THU NOV 23 2017

NOTE: "FAIR" INDICATES FEW OR NO CLOUDS BELOW 12,000 FEET WITH NO
SIGNIFICANT WEATHER AND OR OBSTRUCTIONS TO VISIBILITY.


SDZ038>040-050-052>070-240100-
SOUTHEAST SOUTH DAKOTA

CITY           SKY/WX    TMP DP  RH WIND       PRES   REMARKS
BROOKINGS      CLOUDY    50  37  61 S12       29.70F
CHAMBERLAIN    CLOUDY    58  42  56 S5        29.69F
6HR MIN TEMP:  57; 6HR MAX TEMP:  72;

HURON          PTCLDY    53  40  61 S9        29.66F
6HR MIN TEMP:  49; 6HR MAX TEMP:  59;

MADISON        FAIR      50  37  62 S12       29.72F
MITCHELL       CLOUDY    60  42  51 S8        29.70F
6HR MIN TEMP:  50; 6HR MAX TEMP:  66;

SIOUX FALLS    CLOUDY    55  39  54 S9        29.73F
6HR MIN TEMP:  48; 6HR MAX TEMP:  59;

WINNER         FAIR      64  40  41 SW10      29.71F
YANKTON        CLOUDY    62  43  49 S7        29.74F
$$

MNZ071-072-080-081-089-090-097-098-240100-
SOUTHWEST MINNESOTA

CITY           SKY/WX    TMP DP  RH WIND       PRES   REMARKS
FAIRMONT       CLEAR     41  30  65 S12       29.78F
JACKSON        CLOUDY    45  32  61 S12       29.77F
LUVERNE        CLOUDY    43  32  65 S5        29.76F
MARSHALL       CLEAR     50  35  56 SW17      29.67F
6HR MIN TEMP:  48; 6HR MAX TEMP:  57;

MONTEVIDEO     CLEAR     46  34  61 S8        29.66F
PIPESTONE      CLOUDY    45  34  65 S9        29.73F
REDWOOD FALLS  CLEAR     41  28  60 S13       29.71F
WINDOM         CLOUDY    46  28  49 S10       29.76S
WORTHINGTON    CLOUDY    49  34  56 S14       29.76F
$$

IAZ001>003-012>014-020>022-031-032-NEZ013-014-SDZ071-240100-
NORTHWEST IOWA

CITY           SKY/WX    TMP DP  RH WIND       PRES   REMARKS
CHEROKEE       CLOUDY    46  33  62 S6        29.81S
DENISON        PTCLDY    52  36  54 S7        29.86R
ESTHERVILLE    CLOUDY    40  31  70 S9        29.79S
LE MARS        CLOUDY    52  37  58 S10       29.78F
ORANGE CITY    CLOUDY    50  37  62 S7        29.78F
SHELDON        CLOUDY    48  34  57 S10       29.76F
SIOUX CITY     CLOUDY    49  37  63 E9        29.80S
6HR MIN TEMP:  48; 6HR MAX TEMP:  63;

SPENCER        CLOUDY    44  31  60 S9        29.80S
6HR MIN TEMP:  42; 6HR MAX TEMP:  56;

STORM LAKE     CLOUDY    46  32  57 S10       29.82R
$$

ABBREVIATIONS USED IN REMARKS
   TC - TEMPERATURE IN CELSIUS
  WCI - WIND CHILL INDEX
   HX - HEAT INDEX
  VSB - VISIBILITY





USA.gov is the U.S. government's official web portal to all federal, state and local government web resources and services.